Regional Weather Roundup
Issued by NWS

Home | Current Version | Previous Version | Graphics & Text | Print | Product List | Glossary On
Versions: 1 2 3 4 5 6 7 8 9 10 11 12 13 14 15 16 17 18 19 20 21 22 23 24 25 26 27
000
ASUS45 KSLC 240710
RWRUT

UTAH REGIONAL WEATHER ROUNDUP
NATIONAL WEATHER SERVICE SALT LAKE CITY UT
1200 AM MST FRI NOV 24 2017

UTZ001>011-023>025-240800-

NORTHERN UTAH

CITY           SKY/WX    TMP DP  RH WIND       PRES   REMARKS
BRIGHAM CITY   MOCLDY    47  42  82 N5        30.03R
HILL AFB       CLOUDY    55  39  54 S6        30.02F
LOGAN          MOCLDY    47  43  86 CALM      30.00F
OGDEN          CLOUDY    51  42  71 S5        30.01F
SALT LAKE CITY CLOUDY    52  45  77 S9        30.01F
TOOELE VALLEY  CLOUDY    46  43  87 S7        30.02F
WENDOVER       PTCLDY    39  34  82 W5        30.04F
HEBER CITY     CLOUDY    43  34  70 CALM      30.10S
WEST JORDAN    CLOUDY    51  43  73 S5        30.05F

$$

UTZ011>015-024>027-240800-

CENTRAL/NORTHEAST UTAH

CITY           SKY/WX    TMP DP  RH WIND       PRES   REMARKS
PROVO AIRPORT  CLOUDY    50  39  66 S5        30.07F
MOAB/CANYONLAN MOCLDY    38  27  64 CALM      30.13S
DELTA          CLOUDY    45  34  65 S12       30.08F
PRICE          CLOUDY    40  31  70 E3        30.15F
RICHFIELD      CLEAR     37  34  87 CALM      30.16
ROOSEVELT      CLOUDY    32  27  80 SW5       30.13S WCI  27
VERNAL         CLOUDY    36  30  79 CALM      30.10F

$$

UTZ013>016-019>022-027-240800-

SOUTHERN UTAH

CITY           SKY/WX    TMP DP  RH WIND       PRES   REMARKS
BRYCE CANYON   PTCLDY    31  19  61 CALM      30.28S
CEDAR CITY     MOCLDY    51  18  27 SE7       30.15F
MILFORD        CLOUDY    53  30  41 S15       30.10F
ST GEORGE      CLOUDY    48  30  49 SE3       30.09F
HANKSVILLE     MOCLDY    34  21  60 CALM      30.16S
BLANDING         N/A     37  28  69 N3        30.26S

$$

REGIONAL REPORTS     COLORADO/ARIZONA

CITY           SKY/WX    TMP DP  RH WIND       PRES   REMARKS
CRAIG, CO      CLOUDY    32  29  88 CALM      30.13F
GRAND JUNCTION CLOUDY    44  34  67 E5        30.14F
RIFLE, CO      CLOUDY    36  33  89 CALM      30.17F
MONTROSE, CO   CLOUDY    36  28  73 S8        30.20F WCI  30
CORTEZ, CO     CLOUDY    28  23  81 E6        30.22S WCI  22
COLORADO CITY    N/A     37  28  70 SE7       30.20S WCI  32
PAGE, AZ       PTCLDY    46  32  58 SW3       30.15R
GRAND CANYON   MOCLDY    28  13  53 CALM      30.25F
KINGMAN, AZ    CLEAR     49  27  42 CALM      30.09S
FLAGSTAFF, AZ  PTCLDY    30  23  75 CALM      30.27F

$$

REGIONAL REPORTS    NEVADA/IDAHO/WYOMING

CITY           SKY/WX    TMP DP  RH WIND       PRES   REMARKS
LAS VEGAS, NV  PTCLDY    61  37  41 S5        30.02F
ELY, NY        PTCLDY    44  25  47 S6        30.17S
ELKO, NV       PTCLDY    46  35  65 NW3       30.07S
POCATELLO, ID  PTCLDY    50  39  66 SW13      29.96R
BURLEY, ID     MOCLDY    53  38  56 SW7       29.97R
FORT BRIDGER,    N/A     46  31  56 SW16      30.10F
EVANSTON, WY   CLOUDY    44  32  62 SW17      30.08F
ROCK SPRINGS,  CLOUDY    42  35  76 S9        30.07F
KEMMERER, WY   CLOUDY    37  34  87 W10       30.08F WCI  30

$$




USA.gov is the U.S. government's official web portal to all federal, state and local government web resources and services.